Погода Ивано-Франковск

Поиск расширенной информации на нашем сайте:

Полезная информация:

Новости сайта



02.01.2020
Опубликован Долгосрочный прогноз погоды по городам России и ближнего зарубежья на январь 2020 года.
Карты: Прогноз на январь и февраль 2020 года, Сравнение прогнозируемой аномалии приземной температуры воздуха на январь 2020 года по разным моделям.




Погода Ивано-Франковск - сегодня

Время (UTC), дата Ветер
(°,м/с) 
Видим.   Явления Облачность Т
(°С)
Тd
(°С)
f(%) Тe
(°С)
Pmin
(гПа)
dP
(гПа)
Po
(мм)
O2
(г/м3)
Тmin Tmax R s Состояние
почвы
00 16.01.21 270 (З) 10 км  слаб. ливневой снег  9/9 600 м кучево-дожд. 
[Cb cap]
-7 -9.5 82 -10  1016  -0.9  735  305      0.0     
03 16.01.21 320 (СЗ) 30000 м  слаб. ливневой снег  10/10 600 м кучево-дожд. 
[Cb calv]
-7.7 -12.1 71 -13  1017.1  736  306           
06 16.01.21 320 (СЗ) 20000 м  {ливн. осадки}  10/10 660 м кучево-дожд. 
[Cb calv]
-12.1 -15.9 73 -17  1019.8  737  312  -12.2    0.3  11  равномерный
сухой снег
100% 
09 16.01.21 260 (З) 20000 м  {ливн. осадки}  6/0 средняя 
[Ac trans]
-9.9 -15.1 66 -12  1019.6  0.1  738  310           
12 16.01.21 300 (СЗ) 20000 м  слаб. снег{ливн. осадки}  8/8 800 м 
[Sc]
-7.4 -12.7 66 -11  1017.1  -2.1  736  306      0.0     
15 16.01.21 320 (СЗ) 4100 м  слаб. ливневой снег  10/10 400 м кучево-дожд. 
[Cb cap]
-8.3 -11.5 78 -10  1017.3  0.1  736  307           
18 16.01.21 тихо ()   10 км  {ливн. осадки, снег}  6/6 1000 м 
[Sc]
-13.8 -15.1 90 -14  1018  -0.1  736  314    -7.1  0.0     
21 16.01.21 тихо ()   5000 м  слаб. ливневой снег  9/9 600 м кучево-дожд. 
[Cb cap]
-9.7 -10.9 91 -10  1016.9  -0.5  736  308           
03 17.01.21 тихо ()   10 км    4/0 средняя 
[Ac trans]
-15.3 -17 87 -15  1016.3  -0.5  735  315           
06 17.01.21 тихо ()   10 км    8/8 1200 м 
[Sc]
-14.3 -15.6 90 -14  1016.8  0.6  735  314  -15.8    0.0  10  равномерный
сухой снег
100% 
12 17.01.21 310 (СЗ) 10 км  слаб. ливневой снег  10/10 570 м кучево-дожд. 
[Cb cap]
-3.8 -7.8 74 -7  1016.6  -0.1  736  302      0.0     
15 17.01.21 300 (СЗ) 20000 м  {ливн. осадки}  9/6 800 м средняя 
[Sc|Ac trans]
-4.5 -8.3 75 -8  1017.5  0.8  737  303           
18 17.01.21 320 (СЗ) 2300 м  слаб. ливневой снег  10/10 420 м кучево-дожд. 
[Cb cap]
-6 -9 79 -9  1019.4  1.6  738  305    -2.5  0.0     
21 17.01.21 300 (СЗ) 9000 м  слаб. ливневой снег  10/10 300 м кучево-дожд. 
[Cb cap]
-7.6 -10.2 82 -12  1020.1  0.5  738  307           
00 18.01.21 310 (СЗ) 10 км  слаб. ливневой снег  10/10 480 м кучево-дожд. 
[Cb cap]
-9 -12.4 76 -14  1020.8  0.5  739  309      0.4     
03 18.01.21 300 (СЗ) 10 км  {ливн. осадки}  10/10 800 м 
[Sc]
-10.1 -13.8 74 -15  1021.4  0.4  739  310           
06 18.01.21 310 (СЗ) 10 км  {ливн. осадки}  10/10 600 м 
[Sc]
-10.4 -14 75 -15  1022.1  0.6  739  311  -10.5    0.4  равномерный
сухой снег
100% 
09 18.01.21 320 (СЗ) 10 км  слаб. ливневой снег  10/10 300 м кучево-дожд. 
[Cb cap]
-10.4 -14.6 71 -14  1023.6  1.5  740  311           
12 18.01.21 330 (СЗ) 10 км  в посл. час ливневой снег  8/8 900 м 
[Sc]
-10.1 -15.2 66 -15  1023.1  -0.5  740  311      0.2     
15 18.01.21 300 (СЗ) 10 км    4/0 верхняя 
[Ci fib]
-11.6 -15.6 72 -11  1023.5  0.2  740  313           
18 18.01.21 230 (ЮЗ) 10 км    ясно 
-17 -18.9 85 -19  1024.9  0.6  741  320    -9.8  0.2     
21 18.01.21 240 (ЮЗ) 7000 м  дымка  ясно 
-18.1 -19.6 88 -18  1025.5  0.4  741  321           
03 19.01.21 тихо ()   6000 м  дымка  8/0 средняя 
[Ac trans]
-19 -20.9 85 -19  1024  -0.8  740  322           
06 19.01.21 тихо ()   4700 м  дымка  9/9 900 м 
[Sc]
-14.9 -16.9 85 -15  1022.6  -0.8  739  316  -19.8      равномерный
сухой снег
100% 
09 19.01.21 тихо ()   5000 м  слаб. ливневой снег  9/9 600 м кучево-дожд. 
[Cb cap]
-11.7 -14.1 82 -12  1022.1  739  312           
Время (UTC), дата Ветер
(°,м/с) 
Видим.   Явления Облачность Т
(°С)
Тd
(°С)
f(%) Тe
(°С)
Pmin
(гПа)
dP
(гПа)
Po
(мм)
O2
(г/м3)
Тmin Tmax R s Состояние
почвы

Для получения пояснительной информации подведите курсор к названию столбца.

ПОГОДА Ивано-Франковск - архив

Всё, что Вы хотите узнать о погоде Ивано-Франковск - удобно и подробно!

Выберите нужную дату (начиная с 1 января 2019* года) и нажмите кнопку "Найти".
Будут отображены архивные сводки погоды по пункту Ивано-Франковск, начиная с указанной даты.


Отображать данные в формате CSV (для использования в таблицах Excel)


Внимание! Наш архив погоды предназначен исключительно для личного некоммерческого использования в познавательных целях. Если Вам необходимы официальные справки о состоянии погоды (для производственных, юридических, коммерческих и т.п. целей), обращайтесь в органы Росгидромета.

*Примечание: данная дата относится к архиву по метеостанциям СССР (Россия, СНГ, Балтия).
Архив по метеостанциям Зарубежной Европы и Азии (кроме Китая) хранится 10 дней, по другим регионам земного шара (Китай, Африка, Америка, Австралия, Океания) - 1 день.

Ивано-Франковск - район местоположения метеостанции


Название, широта, долгота, высота метеостанции:
Ивано-Франковск 49°ш. 24.4°д. 280 м над ур. моря [Украина]

Дополнительная информация

В oтличие oт бoльшинства пoгoдных сайтoв мы публикуем пoдрoбную метеoинфoрмацию в детальнoм прoфессиoнальнoм фoрмате.

Характеристики температуры и влажнoсти вoздуха измеряются на высoте 2 м в тени вдали oт зданий и деревьев.
Скoрoсть ветра измеряется на высoте 10 м (на урoвне рoста челoвека скoрoсть ветра ниже в 1.5-2 раза). Если метеoстанция нахoдится в гoрoде или в лесу, тo скoрoсть ветра занижена на 2-4 м/с пo сравнению с oткрытым местoм. Скoрoсть ветра над акватoриями крупных рек и oзёр, а также на вершинах хoлмoв на 2-5 м/с выше, чем в oбычных услoвиях.
Атмoсфернoе давление в разных тoчках местнoсти мoжет значительнo oтличаться oт давления на метеoстанции, в зависимoсти oт услoвий рельефа (при пoдъёме на 10 м давление пoнижается примернo на 1 мм рт.ст.).